Location: Moydans
(44.3997°N, 5.5038°E)
Time: 15:48:18
(UTC+02:00)

Nauka - Pass Details

Date: 27 September 2021
Orbit: 417 x 423 km, 51.6° (Epoch: 26 October)

Event Time Altitude Azimuth Distance (km) Brightness Sun altitude
Rises 21:47:40 0° 301° (WNW) 2,366 ? -25.5°
Reaches altitude 10° 21:49:52 10° 310° (NW) 1,501 ? -25.9°
Enters shadow 21:51:30 24° 327° (NNW) 924 ? -26.1°
